EW2310 Pomezia IT current weather conditions

sailwx.info

Wind from 129 at 1 knots gusting 2

Air temperature 13.3° C
Dewpoint 11.2° C

Last reported at 2019-Dec-06 18:05 UTC.
Time now 2019-Dec-06 18:42 UTC

Location: N 41°40' E 012°31'.
View on Google Maps.

See reports from other nearby stations

  
Tides and Currents Weather Stations Pressure Air Temp Water Temp Dewpoint Dewpoint Depression Visibility Wind Speed Wind Dir Waves Ship Positions
date/time (UTC)wind fromknots sea level pressurealtimeterstation pressurevisibilityair tempwater tempwave heightnotes
2019-Dec-06 18:05 129 1 gusting 2 13.3
2019-Dec-06 18:00 131 1 gusting 2 13.3
2019-Dec-06 17:55 131 0 gusting 1 13.3
2019-Dec-06 17:50 131 0 gusting 3 13.3
2019-Dec-06 17:45 131 1 gusting 2 13.3
2019-Dec-06 17:40 131 13.3
2019-Dec-06 17:35 131 0 gusting 1 13.3
2019-Dec-06 17:30 132 1 gusting 1 13.3
2019-Dec-06 17:25 132 0 gusting 1 13.3
2019-Dec-06 17:20 132 13.3
2019-Dec-06 17:15 132 13.3
2019-Dec-06 17:10 132 13.3
2019-Dec-06 17:05 132 2 gusting 2 13.9
2019-Dec-06 17:00 134 2 gusting 2 13.9
2019-Dec-06 16:55 134 0 gusting 3 13.9
2019-Dec-06 16:50 136 2 gusting 3 13.9
2019-Dec-06 16:45 136 1 gusting 3 13.9
2019-Dec-06 16:40 138 2 gusting 3 14.4
2019-Dec-06 16:35 136 3 gusting 3 14.4
2019-Dec-06 16:30 136 1 gusting 3 14.4
2019-Dec-06 16:25 142 2 gusting 2 14.4
2019-Dec-06 16:20 143 1 gusting 2 14.4
2019-Dec-06 16:15 147 14.4
2019-Dec-06 16:10 147 14.4
2019-Dec-06 16:05 147 15.0
2019-Dec-06 16:00 147 1 gusting 1 15.0
2019-Dec-06 15:55 147 15.0
2019-Dec-06 15:50 147 0 gusting 0 15.0
2019-Dec-06 15:45 147 0 gusting 2 15.0
2019-Dec-06 15:40 150 15.0
2019-Dec-06 15:35 150 1 gusting 2 15.0
2019-Dec-06 15:30 150 0 gusting 2 15.0
2019-Dec-06 15:25 150 2 gusting 2 15.6
2019-Dec-06 15:20 150 0 gusting 1 15.6
2019-Dec-06 15:15 150 1 gusting 1 15.6
2019-Dec-06 15:10 151 0 gusting 2 15.6
2019-Dec-06 15:05 148 0 gusting 1 15.6
2019-Dec-06 15:00 148 15.6
2019-Dec-06 14:55 148 0 gusting 2 15.6
2019-Dec-06 14:50 148 0 gusting 2 15.6
2019-Dec-06 14:45 146 1 gusting 2 15.6
2019-Dec-06 14:40 146 0 gusting 3 16.1
2019-Dec-06 14:35 136 2 gusting 4 16.1
2019-Dec-06 14:30 135 3 gusting 4 16.1
2019-Dec-06 14:25 141 1 gusting 5 16.1
2019-Dec-06 14:20 146 1 gusting 5 16.1
2019-Dec-06 14:15 144 5 gusting 5 16.1
2019-Dec-06 14:10 163 1 gusting 6 16.1
2019-Dec-06 14:05 131 3 gusting 4 16.1
2019-Dec-06 14:00 139 1 gusting 6 16.1
2019-Dec-06 13:55 171 4 gusting 6 16.1
2019-Dec-06 13:50 145 5 gusting 5 16.1
2019-Dec-06 13:45 128 0 gusting 4 16.1
2019-Dec-06 13:40 142 2 gusting 5 16.1
2019-Dec-06 13:35 142 3 gusting 6 16.1
2019-Dec-06 13:30 142 3 gusting 4 16.1
2019-Dec-06 13:25 155 2 gusting 5 16.1
2019-Dec-06 13:20 155 2 gusting 4 16.1
2019-Dec-06 13:15 170 1 gusting 3 16.1
2019-Dec-06 13:10 148 1 gusting 3 16.1
2019-Dec-06 13:05 144 1 gusting 3 16.1
2019-Dec-06 13:00 154 0 gusting 4 16.1
2019-Dec-06 12:55 163 3 gusting 4 16.1
2019-Dec-06 12:50 167 3 gusting 6 16.1
2019-Dec-06 12:45 151 2 gusting 6 16.1
2019-Dec-06 12:40 157 2 gusting 5 16.1
2019-Dec-06 12:35 136 1 gusting 6 16.1
2019-Dec-06 12:30 155 3 gusting 6 16.1
2019-Dec-06 12:25 142 6 gusting 6 16.1
2019-Dec-06 12:20 159 3 gusting 8 16.1
2019-Dec-06 12:15 155 3 gusting 7 16.1
2019-Dec-06 12:10 125 4 gusting 7 16.1
2019-Dec-06 12:05 145 5 gusting 7 16.1
2019-Dec-06 12:00 157 4 gusting 7 16.1
2019-Dec-06 11:55 157 16.7
2019-Dec-06 11:50 163 1 gusting 7 16.1
2019-Dec-06 11:45 157 4 gusting 7 16.1
2019-Dec-06 11:40 144 6 gusting 7 16.1
2019-Dec-06 11:35 159 3 gusting 6 16.1
2019-Dec-06 11:30 148 5 gusting 8 16.1
2019-Dec-06 11:25 134 6 gusting 6 16.1
2019-Dec-06 11:20 142 3 gusting 7 16.1
2019-Dec-06 11:15 144 2 gusting 7 16.1
2019-Dec-06 11:10 141 4 gusting 6 16.1
2019-Dec-06 11:05 142 3 gusting 7 16.1
2019-Dec-06 11:00 138 7 gusting 7 16.1
2019-Dec-06 10:55 144 4 gusting 6 16.1
2019-Dec-06 10:50 151 4 gusting 5 15.6
2019-Dec-06 10:45 123 2 gusting 5 15.6
2019-Dec-06 10:40 159 4 gusting 4 15.6
2019-Dec-06 10:35 152 1 gusting 4 15.6
2019-Dec-06 10:30 135 1 gusting 3 15.6
2019-Dec-06 10:25 123 1 gusting 4 15.6
2019-Dec-06 10:20 074 0 gusting 6 15.6
2019-Dec-06 10:15 100 2 gusting 6 15.6
2019-Dec-06 10:10 123 2 gusting 6 15.6
2019-Dec-06 10:05 119 2 gusting 6 15.6
2019-Dec-06 10:00 167 0 gusting 5 15.6
2019-Dec-06 09:55 114 3 gusting 6 15.6
2019-Dec-06 09:50 128 2 gusting 6 15.6
2019-Dec-06 09:45 112 1 gusting 5 15.6
2019-Dec-06 09:40 096 0 gusting 3 15.6
2019-Dec-06 09:35 107 3 gusting 5 15.0
2019-Dec-06 09:30 117 2 gusting 2 15.0
2019-Dec-06 09:25 136 1 gusting 5 14.4
2019-Dec-06 09:20 070 14.4
2019-Dec-06 09:15 301 13.9
2019-Dec-06 09:10 301 13.9
2019-Dec-06 09:05 301 13.3
2019-Dec-06 09:00 300 13.3
2019-Dec-06 08:55 300 13.3
2019-Dec-06 08:50 300 12.8
2019-Dec-06 08:45 300 12.2
2019-Dec-06 08:40 300 12.2
2019-Dec-06 08:35 300 11.7
2019-Dec-06 08:30 300 11.1
2019-Dec-06 08:25 300 1 gusting 1 11.1
2019-Dec-06 08:20 298 10.6
2019-Dec-06 08:15 297 0 gusting 1 10.6
2019-Dec-06 08:10 302 10.0
2019-Dec-06 08:05 313 1 gusting 3 10.0
2019-Dec-06 08:00 302 1 gusting 1 9.4
2019-Dec-06 07:55 304 0 gusting 2 9.4
2019-Dec-06 07:50 304 0 gusting 2 9.4
2019-Dec-06 07:45 297 1 gusting 2 9.4
2019-Dec-06 07:40 290 1 gusting 2 9.4
2019-Dec-06 07:35 293 0 gusting 4 9.4
2019-Dec-06 07:30 308 2 gusting 4 9.4
2019-Dec-06 07:25 307 2 gusting 4 8.9
2019-Dec-06 07:20 297 1 gusting 4 8.9
2019-Dec-06 07:15 298 0 gusting 2 8.9
2019-Dec-06 07:10 301 0 gusting 2 8.9
2019-Dec-06 07:05 304 1 gusting 2 8.9
2019-Dec-06 07:00 309 2 gusting 3 8.9
2019-Dec-06 06:55 312 2 gusting 3 8.9
2019-Dec-06 06:50 295 1 gusting 3 8.9
2019-Dec-06 06:45 303 2 gusting 4 8.9
2019-Dec-06 06:40 296 1 gusting 2 8.9
2019-Dec-06 06:35 295 1 gusting 3 8.9
2019-Dec-06 06:30 298 3 gusting 3 8.9
2019-Dec-06 06:25 298 1 gusting 2 8.9
2019-Dec-06 06:20 302 0 gusting 2 8.9
2019-Dec-06 06:15 300 0 gusting 3 9.4
2019-Dec-06 06:10 297 0 gusting 3 9.4
2019-Dec-06 06:05 298 2 gusting 3 9.4
2019-Dec-06 06:00 300 0 gusting 4 10.0
2019-Dec-06 05:55 309 1 gusting 2 10.0
2019-Dec-06 05:50 310 1 gusting 2 10.0
2019-Dec-06 05:45 322 1 gusting 2 10.0
2019-Dec-06 05:40 323 2 gusting 2 9.4
2019-Dec-06 05:35 323 1 gusting 3 9.4
2019-Dec-06 05:30 319 2 gusting 2 8.9
2019-Dec-06 05:25 304 1 gusting 2 8.9
2019-Dec-06 05:20 302 0 gusting 1 8.9
2019-Dec-06 05:15 302 0 gusting 1 8.9
2019-Dec-06 05:10 302 0 gusting 3 8.9
2019-Dec-06 05:05 296 0 gusting 3 8.9
2019-Dec-06 05:00 300 0 gusting 2 9.4
2019-Dec-06 04:55 308 1 gusting 2 9.4
2019-Dec-06 04:50 303 0 gusting 2 9.4
2019-Dec-06 04:45 301 9.4
2019-Dec-06 04:40 301 10.0
2019-Dec-06 04:35 316 0 gusting 1 10.6
2019-Dec-06 04:30 327 10.6
2019-Dec-06 04:25 325 10.0
2019-Dec-06 04:20 325 10.0
2019-Dec-06 04:15 325 10.0
2019-Dec-06 04:10 325 10.6
2019-Dec-06 04:05 325 11.1
2019-Dec-06 04:00 326 11.1
2019-Dec-06 03:55 331 11.1
2019-Dec-06 03:50 331 11.7
2019-Dec-06 03:45 331 11.7
2019-Dec-06 03:40 331 11.7
2019-Dec-06 03:35 331 11.7
2019-Dec-06 03:30 331 0 gusting 2 11.7
2019-Dec-06 03:25 327 2 gusting 2 11.1
2019-Dec-06 03:20 325 11.1
2019-Dec-06 03:15 311 11.1
2019-Dec-06 03:10 304 11.1
2019-Dec-06 03:05 304 10.6
2019-Dec-06 03:00 304 10.6
2019-Dec-06 02:55 304 10.6
2019-Dec-06 02:50 304 0 gusting 1 11.1
2019-Dec-06 02:45 315 11.7
2019-Dec-06 02:40 315 12.2
2019-Dec-06 02:35 315 12.2
2019-Dec-06 02:30 315 11.7
2019-Dec-06 02:25 315 11.7
2019-Dec-06 02:20 315 11.7
2019-Dec-06 02:15 315 11.7
2019-Dec-06 02:10 315 11.7
2019-Dec-06 02:05 314 0 gusting 1 11.7
2019-Dec-06 02:00 313 0 gusting 0 11.7
2019-Dec-06 01:55 313 11.1
2019-Dec-06 01:50 313 11.1
2019-Dec-06 01:45 313 11.1
2019-Dec-06 01:40 313 11.1
2019-Dec-06 01:35 313 11.1
2019-Dec-06 01:30 313 10.6
2019-Dec-06 01:25 313 10.6
2019-Dec-06 01:20 313 10.0
2019-Dec-06 01:15 311 0 gusting 1 10.0
2019-Dec-06 01:10 311 1 gusting 2 9.4
2019-Dec-06 01:05 309 9.4
2019-Dec-06 01:00 309 0 gusting 2 9.4
2019-Dec-06 00:55 309 1 gusting 2 9.4
2019-Dec-06 00:50 312 0 gusting 3 9.4
2019-Dec-06 00:45 309 1 gusting 2 9.4
2019-Dec-06 00:40 304 1 gusting 3 9.4
2019-Dec-06 00:35 304 2 gusting 2 9.4
2019-Dec-06 00:30 302 1 gusting 2 9.4
2019-Dec-06 00:25 304 1 gusting 2 9.4
2019-Dec-06 00:20 304 1 gusting 2 9.4
2019-Dec-06 00:15 304 1 gusting 2 9.4
2019-Dec-06 00:10 310 1 gusting 3 9.4
2019-Dec-06 00:05 304 1 gusting 3 9.4
2019-Dec-06 00:00 313 2 gusting 3 9.4
2019-Dec-05 23:55 313 2 gusting 3 9.4
2019-Dec-05 23:50 301 1 gusting 3 9.4
2019-Dec-05 23:45 296 0 gusting 3 9.4
2019-Dec-05 23:40 294 9.4
2019-Dec-05 23:35 302 9.4
2019-Dec-05 23:30 308 1 gusting 3 9.4
2019-Dec-05 23:25 294 0 gusting 3 9.4
2019-Dec-05 23:20 294 0 gusting 2 9.4
2019-Dec-05 23:15 294 1 gusting 1 9.4
2019-Dec-05 23:10 292 9.4
2019-Dec-05 23:05 293 9.4
2019-Dec-05 23:00 292 9.4
2019-Dec-05 22:55 292 0 gusting 2 9.4
2019-Dec-05 22:50 293 9.4
2019-Dec-05 22:45 293 9.4
2019-Dec-05 22:40 294 1 gusting 1 9.4
2019-Dec-05 22:35 288 0 gusting 0 10.0
2019-Dec-05 22:30 288 10.0
2019-Dec-05 22:25 288 10.0
2019-Dec-05 22:20 288 0 gusting 2 10.0
2019-Dec-05 22:15 290 0 gusting 2 10.0
2019-Dec-05 22:10 289 0 gusting 1 10.0
2019-Dec-05 22:05 296 10.6
2019-Dec-05 22:00 296 0 gusting 2 10.6
2019-Dec-05 21:55 299 1 gusting 2 10.6
2019-Dec-05 21:50 296 0 gusting 2 10.0
2019-Dec-05 21:45 297 0 gusting 2 10.6
2019-Dec-05 21:40 300 0 gusting 3 10.6
2019-Dec-05 21:35 297 10.6
2019-Dec-05 21:30 296 10.6
2019-Dec-05 21:25 294 10.6
2019-Dec-05 21:20 298 2 gusting 3 10.6
2019-Dec-05 21:15 294 1 gusting 2 10.6
2019-Dec-05 21:10 297 0 gusting 3 10.6
2019-Dec-05 21:05 311 2 gusting 3 10.6
2019-Dec-05 21:00 298 2 gusting 2 10.0
2019-Dec-05 20:55 306 1 gusting 3 10.6
2019-Dec-05 20:50 321 3 gusting 4 10.6
2019-Dec-05 20:45 298 10.6
2019-Dec-05 20:40 306 0 gusting 3 10.6
2019-Dec-05 20:35 300 0 gusting 2 10.6
2019-Dec-05 20:30 302 1 gusting 3 10.6
2019-Dec-05 20:25 308 1 gusting 3 10.6
2019-Dec-05 20:20 305 0 gusting 4 10.6
2019-Dec-05 20:15 313 2 gusting 4 10.6
2019-Dec-05 20:10 308 1 gusting 2 10.6
2019-Dec-05 20:05 306 0 gusting 3 11.1
2019-Dec-05 20:00 315 2 gusting 2 11.1
2019-Dec-05 19:55 302 11.1
2019-Dec-05 19:50 302 1 gusting 3 11.1
2019-Dec-05 19:45 311 0 gusting 1 11.1
2019-Dec-05 19:40 317 0 gusting 3 11.1
2019-Dec-05 19:35 303 1 gusting 2 11.1
2019-Dec-05 19:30 298 1 gusting 2 11.1
2019-Dec-05 19:25 299 11.1
2019-Dec-05 19:20 299 0 gusting 2 11.1
2019-Dec-05 19:15 305 0 gusting 3 11.1
2019-Dec-05 19:10 298 0 gusting 2 11.1
2019-Dec-05 19:05 300 0 gusting 2 11.1
2019-Dec-05 19:00 300 1 gusting 3 11.1
2019-Dec-05 18:55 296 1 gusting 3 11.1
2019-Dec-05 18:50 294 2 gusting 2 11.1
2019-Dec-05 18:45 308 11.1
2019-Dec-05 18:40 337 0 gusting 4 11.1
2019-Dec-05 18:35 324 3 gusting 3 11.1
2019-Dec-05 18:30 312 0 gusting 3 11.1
2019-Dec-05 18:25 296 1 gusting 5 11.1
2019-Dec-05 18:20 307 11.7
2019-Dec-05 18:15 292 0 gusting 3 11.7
2019-Dec-05 18:10 286 0 gusting 5 11.7
2019-Dec-05 18:05 323 2 gusting 4 12.2
2019-Dec-05 18:00 301 1 gusting 3 12.2
2019-Dec-05 17:55 297 1 gusting 2 12.2
2019-Dec-05 17:50 296 0 gusting 3 12.2
2019-Dec-05 17:45 311 1 gusting 3 12.2
2019-Dec-05 17:40 311 3 gusting 3 12.2
2019-Dec-05 17:35 310 1 gusting 2 12.2
2019-Dec-05 17:30 315 0 gusting 0 12.2
2019-Dec-05 17:25 315 12.2
2019-Dec-05 17:20 315 0 gusting 2 12.2
2019-Dec-05 17:15 316 1 gusting 3 12.2
2019-Dec-05 17:10 321 2 gusting 3 12.2
2019-Dec-05 17:05 309 1 gusting 2 12.2
2019-Dec-05 17:00 300 0 gusting 3 12.8
2019-Dec-05 16:55 305 1 gusting 4 12.8
2019-Dec-05 16:50 329 3 gusting 4 12.8
2019-Dec-05 16:45 317 2 gusting 4 12.8
2019-Dec-05 16:40 329 1 gusting 4 12.8
2019-Dec-05 16:35 317 2 gusting 3 12.8
2019-Dec-05 16:30 310 0 gusting 3 12.8
2019-Dec-05 16:25 318 2 gusting 4 12.8
2019-Dec-05 16:20 317 1 gusting 4 13.3
2019-Dec-05 16:15 348 2 gusting 4 13.3
2019-Dec-05 16:10 331 1 gusting 4 13.3
2019-Dec-05 16:05 013 3 gusting 5 13.3
2019-Dec-05 16:00 338 1 gusting 4 13.3
2019-Dec-05 15:55 340 3 gusting 4 13.3
2019-Dec-05 15:50 347 1 gusting 4 13.3
2019-Dec-05 15:45 13.3
2019-Dec-05 15:40 355 2 gusting 6 13.3
2019-Dec-05 15:30 334 2 gusting 7 13.9
2019-Dec-05 15:25 005 2 gusting 6 13.9
2019-Dec-05 15:20 019 4 gusting 5 14.4
2019-Dec-05 15:15 343 2 gusting 5 14.4
2019-Dec-05 15:10 14.4
2019-Dec-05 15:05 318 2 gusting 7 14.4
2019-Dec-05 15:00 022 2 gusting 6 14.4
2019-Dec-05 14:55 315 1 gusting 5 14.4
2019-Dec-05 14:50 333 2 gusting 5 14.4
2019-Dec-05 14:45 306 1 gusting 5 14.4
2019-Dec-05 14:40 041 2 gusting 6 14.4
2019-Dec-05 14:35 331 2 gusting 6 14.4
2019-Dec-05 14:30 344 1 gusting 4 14.4
2019-Dec-05 14:25 318 3 gusting 6 14.4
2019-Dec-05 14:20 355 3 gusting 6 15.0
2019-Dec-05 14:15 319 4 gusting 7 15.0
2019-Dec-05 14:10 343 3 gusting 5 15.0
2019-Dec-05 14:05 346 15.0
2019-Dec-05 14:00 313 2 gusting 6 15.0
2019-Dec-05 13:55 319 3 gusting 6 15.0
2019-Dec-05 13:50 330 2 gusting 5 15.6
2019-Dec-05 13:45 323 3 gusting 6 15.6
2019-Dec-05 13:40 331 1 gusting 7 15.6
2019-Dec-05 13:35 323 4 gusting 7 15.6
2019-Dec-05 13:30 323 3 gusting 4 15.6
2019-Dec-05 13:25 298 4 gusting 4 15.6
2019-Dec-05 13:20 329 1 gusting 4 16.1
2019-Dec-05 13:15 009 16.1
2019-Dec-05 13:10 342 0 gusting 2 15.6
2019-Dec-05 13:05 040 0 gusting 3 15.6
2019-Dec-05 13:00 348 2 gusting 4 15.6
2019-Dec-05 12:55 355 2 gusting 4 15.6
2019-Dec-05 12:50 355 3 gusting 5 15.0
2019-Dec-05 12:45 355 3 gusting 6 15.0
2019-Dec-05 12:40 338 2 gusting 5 15.0
2019-Dec-05 12:35 355 4 gusting 5 15.0
2019-Dec-05 12:30 317 0 gusting 5 15.6
2019-Dec-05 12:25 322 2 gusting 4 16.1
2019-Dec-05 12:20 157 4 gusting 6 16.1
2019-Dec-05 12:15 146 4 gusting 4 16.1
2019-Dec-05 12:10 146 1 gusting 5 16.1
2019-Dec-05 12:05 150 2 gusting 6 16.1
2019-Dec-05 12:00 138 6 gusting 6 16.1
2019-Dec-05 11:55 138 1 gusting 7 16.1
2019-Dec-05 11:50 150 7 gusting 8 16.1
2019-Dec-05 11:45 137 0 gusting 4 16.1
2019-Dec-05 11:40 130 15.6
2019-Dec-05 11:35 130 15.6
2019-Dec-05 11:30 130 0 gusting 1 15.6
2019-Dec-05 11:25 130 0 gusting 2 15.0
2019-Dec-05 11:20 151 0 gusting 4 15.0
2019-Dec-05 11:15 143 4 gusting 4 15.0
2019-Dec-05 11:10 093 1 gusting 3 15.0
2019-Dec-05 11:05 132 2 gusting 6 15.0
2019-Dec-05 11:00 115 1 gusting 4 15.0
2019-Dec-05 10:55 146 0 gusting 2 15.0
2019-Dec-05 10:50 355 14.4
2019-Dec-05 10:45 120 14.4
2019-Dec-05 10:40 119 13.9
2019-Dec-05 10:35 107 0 gusting 1 13.9
2019-Dec-05 10:30 067 0 gusting 3 13.9
2019-Dec-05 10:25 031 1 gusting 2 13.3
2019-Dec-05 10:20 032 0 gusting 1 13.3
2019-Dec-05 10:15 093 0 gusting 2 12.8
2019-Dec-05 10:10 355 0 gusting 2 12.8
2019-Dec-05 10:05 355 2 gusting 2 12.8
2019-Dec-05 10:00 035 0 gusting 2 12.8
2019-Dec-05 09:55 12.2
2019-Dec-05 09:50 005 0 gusting 1 12.2
2019-Dec-05 09:45 346 1 gusting 2 11.7
2019-Dec-05 09:40 005 11.7
2019-Dec-05 09:35 005 11.7
2019-Dec-05 09:30 005 0 gusting 1 11.7
2019-Dec-05 09:25 005 1 gusting 2 11.7
2019-Dec-05 09:20 053 1 gusting 1 11.1
2019-Dec-05 09:15 320 11.1
2019-Dec-05 09:10 320 11.1
2019-Dec-05 09:05 320 10.6
2019-Dec-05 09:00 320 0 gusting 1 10.6
2019-Dec-05 08:55 313 10.0
2019-Dec-05 08:50 319 2 gusting 4 10.0
2019-Dec-05 08:45 314 0 gusting 4 9.4
2019-Dec-05 08:40 319 2 gusting 6 9.4
2019-Dec-05 08:35 327 4 gusting 6 9.4
2019-Dec-05 08:30 325 3 gusting 7 8.9
2019-Dec-05 08:25 337 3 gusting 6 8.9
2019-Dec-05 08:20 315 2 gusting 7 8.3
2019-Dec-05 08:15 309 4 gusting 8 8.3
2019-Dec-05 08:10 8.3
2019-Dec-05 08:05 317 3 gusting 7 7.8
2019-Dec-05 08:00 310 4 gusting 8 7.8
2019-Dec-05 07:55 306 6 gusting 8 7.8
2019-Dec-05 07:50 332 5 gusting 10 7.8
2019-Dec-05 07:45 296 6 gusting 10 7.8
2019-Dec-05 07:40 290 1 gusting 9 7.2
2019-Dec-05 07:35 332 9 gusting 11 7.2
2019-Dec-05 07:30 315 9 gusting 9 7.2
2019-Dec-05 07:25 315 3 gusting 8 7.2
2019-Dec-05 07:20 324 5 gusting 9 7.2
2019-Dec-05 07:15 327 6 gusting 9 7.2
2019-Dec-05 07:10 330 3 gusting 9 7.2
2019-Dec-05 07:05 340 7 gusting 8 7.2
2019-Dec-05 07:00 331 6 gusting 10 7.2
2019-Dec-05 06:55 344 7 gusting 10 7.2
2019-Dec-05 06:50 316 4 gusting 9 7.2
2019-Dec-05 06:45 326 4 gusting 10 7.2
2019-Dec-05 06:40 323 6 gusting 9 7.2
2019-Dec-05 06:35 322 5 gusting 7 7.2
2019-Dec-05 06:30 284 3 gusting 8 7.2
2019-Dec-05 06:25 319 5 gusting 7 7.2
2019-Dec-05 06:20 309 4 gusting 7 7.2
2019-Dec-05 06:15 330 3 gusting 8 7.2
2019-Dec-05 06:10 329 5 gusting 7 7.2
2019-Dec-05 06:05 340 2 gusting 6 7.2
2019-Dec-05 06:00 307 3 gusting 7 7.2
2019-Dec-05 05:55 313 5 gusting 7 7.2
2019-Dec-05 05:50 355 6 gusting 7 7.2
2019-Dec-05 05:45 307 2 gusting 7 7.2
2019-Dec-05 05:40 319 8 gusting 8 7.2
2019-Dec-05 05:35 305 3 gusting 9 7.2
2019-Dec-05 05:30 340 5 gusting 8 7.2
2019-Dec-05 05:25 310 6 gusting 6 7.2
2019-Dec-05 05:20 328 1 gusting 7 7.2
2019-Dec-05 05:15 355 3 gusting 7 7.2
2019-Dec-05 05:10 349 4 gusting 7 7.2
2019-Dec-05 05:05 333 7 gusting 7 7.2
2019-Dec-05 05:00 297 1 gusting 7 7.2
2019-Dec-05 04:55 306 3 gusting 7 7.2
2019-Dec-05 04:50 313 3 gusting 7 7.8
2019-Dec-05 04:45 309 2 gusting 7 7.8
2019-Dec-05 04:40 311 5 gusting 6 7.8
2019-Dec-05 04:35 317 4 gusting 6 7.8
2019-Dec-05 04:30 291 7.8
2019-Dec-05 04:25 279 0 gusting 6 7.8
2019-Dec-05 04:20 309 4 gusting 7 7.8
2019-Dec-05 04:15 311 1 gusting 6 7.8
2019-Dec-05 04:10 308 2 gusting 6 7.8
2019-Dec-05 04:05 307 3 gusting 6 7.8
2019-Dec-05 04:00 333 5 gusting 7 7.8
2019-Dec-05 03:55 314 5 gusting 8 7.8
2019-Dec-05 03:50 315 5 gusting 7 7.8
2019-Dec-05 03:45 314 2 gusting 6 7.8
2019-Dec-05 03:40 324 4 gusting 9 7.8
2019-Dec-05 03:35 309 2 gusting 10 7.8
2019-Dec-05 03:30 319 2 gusting 8 7.8
2019-Dec-05 03:25 317 1 gusting 8 7.8
2019-Dec-05 03:20 325 5 gusting 8 7.8
2019-Dec-05 03:15 332 6 gusting 7 7.8
2019-Dec-05 03:10 337 6 gusting 6 7.8
2019-Dec-05 03:05 316 4 gusting 8 7.8
2019-Dec-05 03:00 323 6 gusting 7 7.8
2019-Dec-05 02:55 298 1 gusting 8 7.8
2019-Dec-05 02:50 297 7 gusting 10 7.8
2019-Dec-05 02:45 319 5 gusting 9 7.8
2019-Dec-05 02:40 336 4 gusting 9 7.8
2019-Dec-05 02:35 324 6 gusting 9 7.8
2019-Dec-05 02:30 336 4 gusting 10 7.8
2019-Dec-05 02:25 333 9 gusting 10 7.8
2019-Dec-05 02:20 307 4 gusting 9 7.8
2019-Dec-05 02:15 322 4 gusting 9 7.2
2019-Dec-05 02:10 342 7 gusting 9 7.2
2019-Dec-05 02:05 308 4 gusting 7 7.8
2019-Dec-05 02:00 309 2 gusting 10 7.8
2019-Dec-05 01:55 312 5 gusting 10 7.8
2019-Dec-05 01:50 349 9 gusting 12 7.8
2019-Dec-05 01:45 333 12 gusting 12 7.8
2019-Dec-05 01:40 311 5 gusting 9 7.8
2019-Dec-05 01:35 320 3 gusting 9 7.8
2019-Dec-05 01:30 355 5 gusting 10 7.8
2019-Dec-05 01:25 355 4 gusting 10 7.8
2019-Dec-05 01:20 329 5 gusting 9 7.8
2019-Dec-05 01:15 325 6 gusting 8 7.8
2019-Dec-05 01:10 329 4 gusting 8 7.8
2019-Dec-05 01:05 328 3 gusting 5 7.8
2019-Dec-05 01:00 294 2 gusting 7 8.3
2019-Dec-05 00:55 299 6 gusting 8 8.9
2019-Dec-05 00:50 333 3 gusting 7 8.9
2019-Dec-05 00:45 333 2 gusting 7 8.9
2019-Dec-05 00:40 304 3 gusting 7 8.3
2019-Dec-05 00:35 333 5 gusting 7 8.3
2019-Dec-05 00:30 328 4 gusting 7 8.3
2019-Dec-05 00:25 317 3 gusting 6 8.3
2019-Dec-05 00:20 340 5 gusting 7 7.8
2019-Dec-05 00:15 322 1 gusting 8 7.8
2019-Dec-05 00:10 346 4 gusting 7 7.8
2019-Dec-05 00:05 315 2 gusting 3 7.8
2019-Dec-05 00:00 310 2 gusting 3 7.8
2019-Dec-04 23:55 292 1 gusting 2 8.3
2019-Dec-04 23:50 303 1 gusting 1 8.3
2019-Dec-04 23:45 306 8.3
2019-Dec-04 23:40 298 2 gusting 3 8.3
2019-Dec-04 23:35 338 2 gusting 4 8.3
2019-Dec-04 23:30 309 1 gusting 2 8.3
2019-Dec-04 23:25 315 1 gusting 3 7.8
2019-Dec-04 23:20 299 0 gusting 3 7.8
2019-Dec-04 23:15 306 1 gusting 2 7.8
2019-Dec-04 23:10 302 7.8
2019-Dec-04 23:05 305 8.3
2019-Dec-04 23:00 306 0 gusting 3 8.3
2019-Dec-04 22:55 313 2 gusting 2 8.3
2019-Dec-04 22:50 307 0 gusting 2 8.3
2019-Dec-04 22:45 303 0 gusting 0 8.9
2019-Dec-04 22:40 304 8.3
2019-Dec-04 22:35 304 8.3
2019-Dec-04 22:30 307 0 gusting 1 8.3
2019-Dec-04 22:25 307 0 gusting 2 8.3
2019-Dec-04 22:20 292 0 gusting 1 7.8
2019-Dec-04 22:15 294 7.8
2019-Dec-04 22:10 294 7.8
2019-Dec-04 22:05 300 0 gusting 2 8.3
2019-Dec-04 22:00 302 8.3
2019-Dec-04 21:55 304 8.3
2019-Dec-04 21:50 305 0 gusting 0 8.3
2019-Dec-04 21:45 310 8.3
2019-Dec-04 21:40 336 8.9
2019-Dec-04 21:35 336 8.9
2019-Dec-04 21:30 017 1 gusting 4 9.4
2019-Dec-04 21:25 328 2 gusting 2 9.4
2019-Dec-04 21:20 338 9.4
2019-Dec-04 21:15 345 1 gusting 1 9.4
2019-Dec-04 21:10 014 0 gusting 3 8.9
2019-Dec-04 21:05 334 2 gusting 3 8.9
2019-Dec-04 21:00 301 0 gusting 1 8.3
2019-Dec-04 20:55 301 8.9
2019-Dec-04 20:50 302 8.9
2019-Dec-04 20:45 304 0 gusting 1 8.9
2019-Dec-04 20:40 306 8.9
2019-Dec-04 20:35 329 1 gusting 3 8.9
2019-Dec-04 20:30 306 0 gusting 1 8.9
2019-Dec-04 20:25 300 0 gusting 1 8.9
2019-Dec-04 20:20 312 0 gusting 2 8.9
2019-Dec-04 20:15 309 8.9
2019-Dec-04 20:10 280 8.9
2019-Dec-04 20:05 333 2 gusting 4 9.4
2019-Dec-04 20:00 329 2 gusting 4 9.4
2019-Dec-04 19:55 330 1 gusting 4 9.4
2019-Dec-04 19:50 323 2 gusting 4 9.4
2019-Dec-04 19:45 323 3 gusting 4 9.4
2019-Dec-04 19:40 304 0 gusting 3 9.4
2019-Dec-04 19:35 319 2 gusting 4 10.0
2019-Dec-04 19:30 323 1 gusting 4 10.0
2019-Dec-04 19:25 313 1 gusting 6 10.6
2019-Dec-04 19:20 317 3 gusting 6 10.6
2019-Dec-04 19:06 324 1 gusting 2 10.6
2019-Dec-04 19:01 323 1 gusting 2 10.6
2019-Dec-04 18:56 326 2 gusting 3 10.6
2019-Dec-04 18:51 315 2 gusting 3 10.0
2019-Dec-04 18:46 305 0 gusting 1 10.0
2019-Dec-04 18:41 311 0 gusting 4 10.0
2019-Dec-04 18:36 304 4 gusting 5 10.0
2019-Dec-04 18:31 302 0 gusting 2 10.0
2019-Dec-04 18:26 315 10.6
2019-Dec-04 18:15 318 10.6
2019-Dec-04 18:10 320 2 gusting 3 10.6
2019-Dec-04 18:05 318 0 gusting 2 10.6
2019-Dec-04 18:00 318 0 gusting 1 10.6